Location: San José
(9.9281°N, 84.0907°W)
Time: 09:14:26
(UTC-06:00)

ISS - Visible Passes

Search period start: 13 August 2020 00:00
Search period end: 23 August 2020 00:00
Orbit: 418 x 420 km, 51.6° (Epoch: 14 August)

Date Brightness Start Highest point End Pass type
(mag) Time Alt. Az. Time Alt. Az. Time Alt. Az.
16 Aug -1.0 04:57:48 10° SSE 05:00:03 17° SE 05:02:18 10° E visible
18 Aug -3.8 04:58:06 10° SW 05:01:26 86° NW 05:04:47 10° NE visible
19 Aug -2.5 04:12:23 24° S 04:13:51 37° SE 04:16:58 10° NE visible
20 Aug -0.7 03:27:28 14° E 03:27:28 14° E 03:28:31 10° E visible
20 Aug -1.9 05:00:43 10° W 05:02:54 16° NW 05:05:04 10° N visible
21 Aug -2.9 04:15:28 34° NW 04:15:28 34° NW 04:18:18 10° NNE visible
22 Aug -0.8 03:30:21 14° NE 03:30:21 14° NE 03:30:56 10° NE visible
